Zurück zum Katalog

COSMOS 381

AktivMilitärLEO
NORAD 4783·PAYLOAD·🇷🇺 Russia

Gestartet Dec 2, 1970 von Plesetsk Cosmodrome

Loading…

Nächste Überflüge

TLE

Source: Space-Track
1 04783U 70102A   26228.42830733  .00000013  00000-0  37391-4 0  9993
2 04783  74.0311 271.4491 0031670 277.7366  82.0158 13.75050567794433

Verfolge COSMOS 381 in Echtzeit mit AllMySat

Download on the App Store